Lid_Strength_Index
6 6 6 6 6 6 8 13 17 9 8 12 14 15 12 10 11 10 11 10 11 12 11 11 12 12 10 7 8 11 11 13 13 12 10 10 11 12 12 13 15 16 15 14
6 6 6 6 6 6 8 12 14 8 9 14 13 11 9 9 10 10 11 12 9 9 11 13 11 10 7 6 8 10 11 14 15 14 13 12 12 11 13 14 14 15 15 14
5 5 5 5 6 6 7 12 14 11 10 11 12 12 11 10 6 8 8 10 8 8 12 9 12 10 8 7 8 5 7 14 12 13 13 12 12 11 11 12 15 15 14 12
4 4 4 4 5 5 6 11 12 11 13 11 12 13 11 10 10 8 8 10 9 9 11 10 10 9 8 7 5 8 11 13 13 11 10 11 11 11 11 12 12 12 12 12
3 3 3 3 4 4 8 10 11 9 10 11 11 12 11 10 10 10 10 10 8 8 10 9 11 9 10 9 9 11 12 14 12 12 11 11 11 11 11 10 12 12 12 12
1 1 1 2 2 4 9 8 8 9 9 11 11 11 10 10 9 9 9 8 9 9 8 7 8 8 8 8 10 11 14 13 15 13 12 11 13 12 11 10 9 10 12 10
0 0 0 0 1 3 5 6 6 9 11 10 10 9 9 9 10 11 9 8 9 7 7 7 7 10 9 9 9 10 12 14 15 13 13 15 12 9 8 9 9 9 9 10
-0 -0 -0 0 0 1 5 6 6 7 10 9 9 9 10 9 10 9 8 7 8 8 9 10 11 11 10 9 9 10 11 14 14 15 15 11 11 9 10 10 11 8 9 8
-0 -0 -0 0 0 1 3 6 4 6 8 11 8 10 10 11 13 12 9 6 8 9 11 11 14 14 12 12 11 10 11 11 12 14 15 15 11 9 7 8 13 7 7 8
-1 -1 -1 -0 0 0 3 5 2 5 8 7 9 11 11 10 11 14 10 9 11 8 12 13 13 14 10 13 14 14 13 13 15 15 16 13 10 8 7 13 13 8 7 8
-1 -1 -0 -1 -0 0 3 5 3 4 6 7 6 7 9 9 10 13 11 11 9 9 13 13 13 13 11 13 12 13 14 15 16 15 16 17 8 8 12 9 8 7 7 7
-1 -1 -0 -1 -1 -0 2 5 3 2 5 7 6 5 5 6 6 10 11 12 10 10 12 11 11 13 12 13 16 10 14 12 14 13 14 9 8 9 7 7 7 7 7 7
-1 -0 -0 -0 -0 -0 1 4 5 5 8 7 9 8 5 5 5 6 12 11 10 9 10 11 10 13 11 15 14 12 10 9 12 12 10 9 8 7 6 6 6 6 6 6
-1 -0 -0 -0 -0 -0 1 4 5 5 6 9 8 4 5 3 5 6 8 10 9 9 10 11 10 12 9 12 12 12 10 9 11 11 9 8 7 7 6 5 5 6 6 5
-0 -0 -0 -0 -0 -0 2 5 5 4 5 9 8 6 4 5 5 6 7 9 9 9 11 11 11 9 10 11 10 12 9 11 12 13 8 9 7 6 5 7 7 7 7 7
-0 -0 -0 -0 -0 0 5 5 5 3 3 8 11 7 6 6 6 7 9 8 9 9 11 11 11 9 9 12 13 9 8 8 7 9 6 6 6 6 6 7 7 7 7 7
-0 -0 -0 -0 -0 4 7 6 3 2 4 8 9 9 7 6 6 6 8 8 8 8 10 11 12 10 9 11 13 11 10 7 6 6 8 8 7 8 6 7 6 7 7 7
0 -0 -0 0 1 2 6 3 2 3 6 7 11 10 9 7 9 9 7 8 9 9 9 11 11 10 10 12 11 10 9 8 8 8 7 7 7 7 8 7 7 8 8 8
0 0 0 4 5 6 5 -0 1 4 6 9 9 11 11 8 9 8 8 7 9 8 11 11 8 10 13 11 11 9 9 9 9 8 7 8 8 8 7 7 7 8 7 7
0 3 6 7 4 -1 1 5 7 7 7 8 10 9 11 10 9 10 9 8 10 11 11 7 10 11 8 7 8 8 7 8 7 8 8 8 8 7 7 7 7 7 6 6
5 5 5 3 1 5 6 8 9 8 9 8 9 9 10 8 9 9 8 10 10 11 11 11 12 12 9 6 6 6 6 6 6 7 7 7 7 7 6 6 6 6 6 6
3 4 3 4 6 8 10 11 9 9 10 8 9 9 9 8 7 8 8 9 10 12 9 11 14 10 7 6 6 5 5 5 5 4 5 4 4 4 5 5 5 5 4 4
2 5 7 8 10 15 12 13 11 11 8 8 8 9 8 8 8 8 9 10 11 8 12 13 11 8 6 6 6 5 5 4 4 4 4 4 4 4 4 4 4 4 4 4
6 8 12 11 12 10 10 10 10 7 7 7 7 8 8 8 9 9 10 10 9 13 14 14 10 8 7 6 5 6 6 5 5 5 4 5 4 4 4 4 4 4 4 4
8 8 11 10 8 7 6 6 7 6 6 7 8 8 8 9 9 9 10 11 14 13 13 10 8 7 6 6 6 6 5 5 5 5 5 4 4 4 4 4 5 4 4 5
7 7 9 7 8 8 8 7 7 6 7 7 8 9 10 11 10 11 13 13 14 12 9 8 7 7 6 6 5 5 5 5 5 4 4 4 4 4 4 4 4 4 4 4
7 8 6 7 8 8 7 7 7 6 7 9 9 11 12 9 11 13 11 12 10 8 8 7 7 7 6 5 5 5 5 5 5 5 5 5 4 5 5 5 5 4 4 5